GAOFEN 9 03

导读

高分九号03星(GAOFEN 9 03)是中国研制的光学遥感卫星,隶属于中国高分辨率对地观测系统重大专项,于2020年6月17日在酒泉卫星发射中心,通过长征二号丁运载火箭以"一箭三星"方式成功发射。该星地面像元分辨率最高可达亚米级,可服务于国土普查、城市规划、防灾减灾等领域,为"一带一路"建设提供信息支撑。

Basic Information
目录编号:
45794
目录名称:
GAOFEN 9 03
国际标识:
2020-039A
轨道中心:
EARTH
卫星名称:
GAOFEN 9 03
卫星全名:
--
卫星状态:
在轨 (已飞行2186 天)
发射日期:
2020-06-17 UTC
国别 :
中国 (CN)
星等 :
--
Orbit Information
数据来源 国际轨道数据 AOE轨道数据
星历时间 2026-06-12T15:49:33+0800
13小时前
查看轨道信息
2026-06-11T06:00:00+0800
1天前
查看轨道信息
半长轴 6846.905km 6846.933km
偏心率 0.0012899 0.0012873
轨道倾角 97.537° 97.537°
近地点辐角 99.412° 104.428°
升交点赤经 297.122° 295.688°
平近点角 260.858° 45.896°
近地点 459.936km 459.981km
远地点 477.6km 477.611km
周期 93.973分钟 93.973分钟
每日圈数 15.323618 15.323526
Detailed Information
使用方式:
暂无
2D Orbit Map
3D Orbit Map
Orbit Altitude Analysis Chart
Orbit Inclination Analysis Chart
Orbit Comprehensive Analysis Chart
View Comprehensive Chart